PIA785 OPIS-EGLL

Flight info

Callsign PIA785
Flight time N/A
Altitude 26000
Route KALMI J139 HANGU G796 LAJAK/N0481F380 L509 TAPIS M875 AMDAR/K0889F380 T186 LAPZE Z407 ODIVA DCT ARISA/K0891F400 L736 ASKIL L979 GRD L32 SOTET/N0470F400 L32 SUWGI L29 ALUKA DCT HLZ DCT ABNED L980 LOGAN
Aircraft B772/H-SDE2E3FGHIJ5LORVWXY/LB1D1

Departure

Time 2026-04-30 12:28
Airport Islamabad International Airport (OPIS)

Arrival

Time N/A
Airport London Heathrow Airport (EGLL)
Time Latitude Longitude Altitude Speed Heading
2026-04-30 11:53 33.55414 72.83519 1778 ft 0 kts 10°
2026-04-30 12:16 33.55411 72.83518 1777 ft 3 kts 10°
2026-04-30 12:16 33.55385 72.83512 1776 ft 4 kts 10°
2026-04-30 12:17 33.55340 72.83496 1775 ft 4 kts 64°
2026-04-30 12:17 33.55338 72.83468 1775 ft 4 kts 102°
2026-04-30 12:17 33.55341 72.83451 1774 ft 1 kts 100°
2026-04-30 12:18 33.55341 72.83449 1773 ft 0 kts 100°
2026-04-30 12:22 33.55340 72.83456 1774 ft 4 kts 100°
2026-04-30 12:22 33.55326 72.83511 1777 ft 8 kts 118°
2026-04-30 12:22 33.55268 72.83538 1776 ft 10 kts 184°
2026-04-30 12:22 33.55198 72.83526 1776 ft 10 kts 190°
2026-04-30 12:23 33.55129 72.83510 1777 ft 10 kts 190°
2026-04-30 12:23 33.55062 72.83522 1776 ft 10 kts 137°
2026-04-30 12:23 33.55038 72.83602 1773 ft 10 kts 99°
2026-04-30 12:23 33.55026 72.83687 1776 ft 10 kts 100°
2026-04-30 12:24 33.55012 72.83775 1775 ft 11 kts 100°
2026-04-30 12:24 33.54999 72.83863 1776 ft 11 kts 100°
2026-04-30 12:24 33.54985 72.83952 1774 ft 11 kts 100°
2026-04-30 12:24 33.54971 72.84041 1774 ft 11 kts 100°
2026-04-30 12:25 33.54958 72.84130 1775 ft 11 kts 100°
2026-04-30 12:25 33.54944 72.84218 1774 ft 11 kts 100°
2026-04-30 12:25 33.54931 72.84306 1775 ft 11 kts 101°
2026-04-30 12:25 33.54917 72.84395 1775 ft 11 kts 100°
2026-04-30 12:26 33.54904 72.84483 1773 ft 11 kts 100°
2026-04-30 12:26 33.54858 72.84545 1777 ft 11 kts 173°
2026-04-30 12:26 33.54778 72.84532 1773 ft 13 kts 191°
2026-04-30 12:26 33.54702 72.84498 1769 ft 10 kts 236°
2026-04-30 12:27 33.54710 72.84432 1771 ft 8 kts 284°
2026-04-30 12:27 33.54714 72.84407 1769 ft 0 kts 280°
2026-04-30 12:27 33.54716 72.84396 1769 ft 10 kts 280°
2026-04-30 12:27 33.54772 72.84026 1766 ft 80 kts 282°
2026-04-30 12:28 33.54917 72.83108 1770 ft 142 kts 281°
2026-04-30 12:28 33.55131 72.81749 1903 ft 180 kts 280°
2026-04-30 12:28 33.55378 72.80218 2426 ft 197 kts 280°
2026-04-30 12:28 33.55615 72.78550 3055 ft 208 kts 280°
2026-04-30 12:29 33.55899 72.76807 3638 ft 216 kts 281°
2026-04-30 12:29 33.56194 72.75051 4266 ft 213 kts 280°
2026-04-30 12:29 33.56252 72.73278 4651 ft 222 kts 254°
2026-04-30 12:29 33.55388 72.71683 4799 ft 239 kts 223°
2026-04-30 12:30 33.54309 72.70080 4890 ft 259 kts 247°
2026-04-30 12:30 33.54022 72.67928 5218 ft 272 kts 273°
2026-04-30 12:30 33.54186 72.65634 5685 ft 280 kts 274°
2026-04-30 12:30 33.54310 72.63283 6312 ft 283 kts 273°
2026-04-30 12:31 33.54397 72.60933 7025 ft 282 kts 272°
2026-04-30 12:31 33.54461 72.58593 7733 ft 281 kts 272°
2026-04-30 12:31 33.54512 72.56236 8344 ft 283 kts 272°
2026-04-30 12:31 33.54555 72.53857 8956 ft 285 kts 272°
2026-04-30 12:32 33.54596 72.51494 9546 ft 287 kts 272°
2026-04-30 12:32 33.54633 72.49090 9951 ft 289 kts 272°
2026-04-30 12:32 33.54663 72.46648 10178 ft 301 kts 272°
2026-04-30 12:32 33.54689 72.44052 10309 ft 320 kts 272°
2026-04-30 12:33 33.54722 72.41315 10641 ft 333 kts 272°
2026-04-30 12:33 33.54740 72.38506 11178 ft 341 kts 271°
2026-04-30 12:33 33.54748 72.35639 11934 ft 344 kts 271°
2026-04-30 12:33 33.54754 72.32798 12786 ft 346 kts 271°
2026-04-30 12:34 33.54760 72.29895 13584 ft 350 kts 271°
2026-04-30 12:34 33.54766 72.26954 14283 ft 354 kts 271°
2026-04-30 12:34 33.54773 72.23973 14926 ft 359 kts 271°
2026-04-30 12:34 33.54779 72.20965 15666 ft 362 kts 271°
2026-04-30 12:35 33.54784 72.17932 16436 ft 365 kts 271°
2026-04-30 12:35 33.54789 72.14868 17161 ft 368 kts 271°
2026-04-30 12:35 33.54793 72.11814 17838 ft 372 kts 271°
2026-04-30 12:35 33.54797 72.08691 18440 ft 376 kts 271°
2026-04-30 12:36 33.54799 72.05538 19040 ft 379 kts 271°
2026-04-30 12:36 33.54798 72.02365 19640 ft 382 kts 270°
2026-04-30 12:36 33.54679 71.99160 20227 ft 385 kts 267°
2026-04-30 12:36 33.54462 71.95946 20777 ft 389 kts 266°
2026-04-30 12:37 33.54235 71.92704 21335 ft 392 kts 266°
2026-04-30 12:37 33.54029 71.89473 21874 ft 395 kts 266°
2026-04-30 12:37 33.53831 71.86170 22446 ft 398 kts 266°
2026-04-30 12:37 33.53637 71.82855 22996 ft 401 kts 266°
2026-04-30 12:38 33.53443 71.79496 23476 ft 404 kts 266°
2026-04-30 12:38 33.53249 71.76123 23937 ft 407 kts 266°
2026-04-30 12:38 33.53052 71.72727 24439 ft 408 kts 267°
2026-04-30 12:38 33.52854 71.69324 24933 ft 410 kts 267°
2026-04-30 12:39 33.52656 71.65944 25403 ft 412 kts 267°
2026-04-30 12:39 33.52452 71.62498 25737 ft 416 kts 267°
2026-04-30 12:39 33.52246 71.59034 25714 ft 416 kts 267°
2026-04-30 12:39 33.52040 71.55579 25726 ft 414 kts 267°
2026-04-30 12:40 33.51834 71.52147 25713 ft 413 kts 267°
2026-04-30 12:40 33.51627 71.48708 25722 ft 413 kts 267°
2026-04-30 12:40 33.51420 71.45277 25728 ft 414 kts 267°
2026-04-30 12:40 33.51208 71.41825 25729 ft 414 kts 267°
2026-04-30 12:41 33.50995 71.38380 25727 ft 415 kts 267°
2026-04-30 12:41 33.50779 71.34919 25727 ft 415 kts 267°
2026-04-30 12:41 33.50564 71.31472 25726 ft 415 kts 267°
2026-04-30 12:41 33.50349 71.28024 25740 ft 414 kts 267°
2026-04-30 12:42 33.50135 71.24624 25735 ft 414 kts 267°
2026-04-30 12:42 33.49918 71.21180 25730 ft 414 kts 267°
2026-04-30 12:42 33.49699 71.17736 25743 ft 414 kts 267°
2026-04-30 12:42 33.49481 71.14298 25753 ft 414 kts 267°
2026-04-30 12:43 33.49261 71.10856 25758 ft 414 kts 267°
2026-04-30 12:43 33.49040 71.07414 25758 ft 414 kts 267°
2026-04-30 12:43 33.48955 71.04029 25746 ft 408 kts 277°
2026-04-30 12:43 33.49693 71.00765 25768 ft 408 kts 294°
2026-04-30 12:44 33.51107 70.97811 25776 ft 411 kts 307°
2026-04-30 12:44 33.53072 70.95303 25768 ft 413 kts 315°
2026-04-30 12:44 33.55189 70.92959 25781 ft 415 kts 316°
2026-04-30 12:44 33.57330 70.90623 25784 ft 417 kts 316°
2026-04-30 12:45 33.59472 70.88277 25784 ft 418 kts 316°
2026-04-30 12:45 33.61615 70.85908 25793 ft 417 kts 316°
2026-04-30 12:45 33.63732 70.83545 25806 ft 415 kts 315°
2026-04-30 12:45 33.65832 70.81186 25799 ft 413 kts 315°
2026-04-30 12:46 33.67924 70.78824 25810 ft 411 kts 315°
2026-04-30 12:46 33.70003 70.76472 25800 ft 410 kts 315°
2026-04-30 12:46 33.72080 70.74121 25835 ft 409 kts 315°
2026-04-30 12:46 33.74154 70.71771 25817 ft 410 kts 315°
2026-04-30 12:47 33.76202 70.69449 25830 ft 410 kts 315°
2026-04-30 12:47 33.78278 70.67093 25830 ft 411 kts 315°
2026-04-30 12:47 33.80357 70.64733 25831 ft 412 kts 315°
2026-04-30 12:47 33.82445 70.62360 25835 ft 413 kts 315°
2026-04-30 12:48 33.84541 70.59976 25952 ft 417 kts 315°
2026-04-30 12:48 33.85938 70.58388 26263 ft 418 kts 315°
2026-04-30 12:48 33.88058 70.55976 26801 ft 418 kts 315°
2026-04-30 12:48 33.90169 70.53571 27364 ft 418 kts 314°
2026-04-30 12:49 33.92753 70.50128 27963 ft 420 kts 307°
2026-04-30 12:49 33.93932 70.48199 28177 ft 424 kts 304°
2026-04-30 12:49 33.95484 70.45211 28554 ft 427 kts 298°
2026-04-30 12:49 33.96884 70.42035 29004 ft 429 kts 297°
2026-04-30 12:50 33.98273 70.38840 29487 ft 431 kts 297°
2026-04-30 12:50 33.99665 70.35635 29920 ft 433 kts 297°
2026-04-30 12:50 34.01072 70.32405 30355 ft 434 kts 297°
2026-04-30 12:50 34.02476 70.29192 30857 ft 431 kts 297°
2026-04-30 12:51 34.03908 70.26023 31379 ft 428 kts 297°
2026-04-30 12:51 34.05304 70.22863 31877 ft 425 kts 297°
2026-04-30 12:51 34.06663 70.19760 32277 ft 420 kts 298°
2026-04-30 12:51 34.08123 70.16721 32358 ft 421 kts 297°
2026-04-30 12:52 34.09466 70.13572 32541 ft 424 kts 296°
2026-04-30 12:52 34.10782 70.10389 32967 ft 420 kts 295°
2026-04-30 12:52 34.12093 70.07267 33515 ft 414 kts 296°
2026-04-30 12:52 34.13498 70.04263 34041 ft 401 kts 299°
2026-04-30 12:53 34.16072 69.98255 34187 ft 408 kts 295°
2026-04-30 12:53 34.17338 69.95205 34460 ft 406 kts 296°
2026-04-30 12:53 34.18641 69.92162 34715 ft 407 kts 296°
2026-04-30 12:54 34.19952 69.89132 34969 ft 406 kts 296°
2026-04-30 12:54 34.21266 69.86105 35252 ft 405 kts 296°
2026-04-30 12:54 34.22574 69.83093 35453 ft 406 kts 296°
2026-04-30 12:54 34.23876 69.80084 35617 ft 408 kts 296°
2026-04-30 12:55 34.25190 69.77044 35853 ft 408 kts 296°
2026-04-30 12:55 34.26503 69.74002 36164 ft 407 kts 296°
2026-04-30 12:55 34.27811 69.70964 36464 ft 406 kts 295°
2026-04-30 12:55 34.29113 69.67939 36727 ft 406 kts 295°
2026-04-30 12:56 34.30414 69.64908 36985 ft 406 kts 295°
2026-04-30 12:56 34.31719 69.61874 37212 ft 405 kts 296°
2026-04-30 12:56 34.33023 69.58838 37406 ft 405 kts 296°
2026-04-30 12:56 34.34320 69.55812 37658 ft 404 kts 296°
2026-04-30 12:57 34.36910 69.49762 37791 ft 409 kts 295°
2026-04-30 12:57 34.39532 69.43623 37808 ft 410 kts 295°
2026-04-30 12:58 34.42136 69.37518 37826 ft 405 kts 295°
2026-04-30 12:58 34.44714 69.31464 37821 ft 402 kts 295°
2026-04-30 12:59 34.47273 69.25444 37831 ft 402 kts 295°
2026-04-30 12:59 34.49890 69.19522 37828 ft 402 kts 302°
2026-04-30 13:00 34.53715 69.14459 37844 ft 411 kts 312°
2026-04-30 13:00 34.58472 69.10452 37855 ft 424 kts 324°
2026-04-30 13:01 34.63693 69.07145 37847 ft 427 kts 324°
2026-04-30 13:01 34.68978 69.03810 37851 ft 428 kts 324°
2026-04-30 13:02 34.74267 69.00418 37858 ft 428 kts 324°
2026-04-30 13:02 34.79778 68.97877 37897 ft 448 kts 352°
2026-04-30 13:03 34.82849 68.97865 37861 ft 429 kts 335°
2026-04-30 13:03 34.85388 68.96322 37900 ft 401 kts 312°
2026-04-30 13:03 34.89413 68.91579 37907 ft 411 kts 314°
2026-04-30 13:04 34.94190 68.87512 37909 ft 425 kts 321°
2026-04-30 13:04 34.99406 68.83963 37968 ft 431 kts 324°
2026-04-30 13:05 35.04706 68.80556 37994 ft 433 kts 324°
2026-04-30 13:06 35.12677 68.75402 38020 ft 431 kts 324°
2026-04-30 13:06 35.17954 68.71946 38036 ft 429 kts 323°
2026-04-30 13:07 35.23207 68.68501 38042 ft 426 kts 323°
2026-04-30 13:07 35.28393 68.65092 38058 ft 424 kts 323°
2026-04-30 13:08 35.33608 68.61654 38066 ft 425 kts 323°
2026-04-30 13:08 35.38819 68.58217 38049 ft 426 kts 323°
2026-04-30 13:09 35.44045 68.54766 38035 ft 426 kts 323°
2026-04-30 13:09 35.49237 68.51336 38031 ft 426 kts 323°
2026-04-30 13:10 35.54450 68.47882 38011 ft 425 kts 323°
2026-04-30 13:10 35.59667 68.44425 38020 ft 425 kts 323°
2026-04-30 13:11 35.64832 68.40979 38019 ft 424 kts 323°
2026-04-30 13:11 35.70031 68.37491 38029 ft 426 kts 323°
2026-04-30 13:12 35.75241 68.33992 38005 ft 427 kts 323°
2026-04-30 13:12 35.80425 68.30513 38017 ft 425 kts 324°
2026-04-30 13:13 35.88214 68.25270 38023 ft 424 kts 323°
2026-04-30 13:14 35.95995 68.20015 38001 ft 426 kts 323°
2026-04-30 13:14 36.03814 68.14728 38010 ft 427 kts 323°
2026-04-30 13:15 36.11620 68.09438 37996 ft 428 kts 323°
2026-04-30 13:16 36.16863 68.05873 38014 ft 431 kts 323°
2026-04-30 13:16 36.22147 68.02279 37940 ft 433 kts 323°
2026-04-30 13:17 36.30023 67.96919 37929 ft 431 kts 323°
2026-04-30 13:18 36.37879 67.91551 37937 ft 429 kts 323°
2026-04-30 13:18 36.45671 67.86216 37903 ft 427 kts 323°
2026-04-30 13:19 36.50867 67.82652 37910 ft 427 kts 323°
2026-04-30 13:19 36.56067 67.79076 37906 ft 428 kts 323°
2026-04-30 13:20 36.61307 67.75465 37902 ft 431 kts 323°
2026-04-30 13:20 36.66578 67.71837 37903 ft 433 kts 323°
2026-04-30 13:21 36.71817 67.68223 37888 ft 432 kts 323°
2026-04-30 13:22 36.79717 67.62784 37876 ft 432 kts 323°
2026-04-30 13:22 36.87601 67.57349 37863 ft 430 kts 323°
2026-04-30 13:23 36.95457 67.51916 37873 ft 430 kts 323°
2026-04-30 13:24 37.05944 67.44643 37853 ft 431 kts 323°
2026-04-30 13:25 37.16425 67.37351 37858 ft 433 kts 323°
2026-04-30 13:26 37.24894 67.32924 37858 ft 449 kts 336°
2026-04-30 13:26 37.30763 67.30480 37857 ft 439 kts 328°
2026-04-30 13:28 37.44210 67.21720 37857 ft 438 kts 324°
2026-04-30 13:28 37.52331 67.16415 37867 ft 439 kts 324°
2026-04-30 13:29 37.63216 67.09293 37877 ft 441 kts 324°
2026-04-30 13:31 37.76182 66.99365 37916 ft 434 kts 318°
2026-04-30 13:32 37.88604 66.88500 37933 ft 434 kts 318°
2026-04-30 13:33 37.98561 66.79792 37921 ft 435 kts 318°
2026-04-30 13:34 38.06001 66.73265 37954 ft 436 kts 318°
2026-04-30 13:35 38.16025 66.64448 37943 ft 440 kts 318°
2026-04-30 13:36 38.25264 66.56299 37956 ft 441 kts 318°
2026-04-30 13:36 38.32798 66.49630 37910 ft 441 kts 318°
2026-04-30 13:37 38.40330 66.42949 37894 ft 439 kts 318°
2026-04-30 13:38 38.47825 66.36281 37893 ft 438 kts 318°
2026-04-30 13:39 38.57864 66.27322 37881 ft 441 kts 318°
2026-04-30 13:40 38.66025 66.21623 37862 ft 457 kts 330°
2026-04-30 13:40 38.71986 66.18729 37864 ft 458 kts 331°
2026-04-30 13:41 38.77952 66.15842 37864 ft 459 kts 331°
2026-04-30 13:41 38.83923 66.12915 37883 ft 458 kts 331°
2026-04-30 13:42 38.89842 66.09991 37867 ft 458 kts 331°
2026-04-30 13:42 38.98772 66.05566 37864 ft 458 kts 331°
2026-04-30 13:43 39.04737 66.02604 37880 ft 458 kts 331°
2026-04-30 13:43 39.10682 65.99647 37863 ft 458 kts 331°
2026-04-30 13:44 39.16635 65.96681 37867 ft 458 kts 331°
2026-04-30 13:44 39.22554 65.93727 37882 ft 459 kts 332°
2026-04-30 13:45 39.31500 65.89251 37868 ft 460 kts 331°
2026-04-30 13:46 39.37480 65.86253 37867 ft 461 kts 331°
2026-04-30 13:46 39.43471 65.83242 37874 ft 463 kts 332°
2026-04-30 13:47 39.49456 65.80230 37875 ft 464 kts 332°
2026-04-30 13:47 39.55480 65.77192 37880 ft 464 kts 332°
2026-04-30 13:48 39.61504 65.74148 37890 ft 465 kts 332°
2026-04-30 13:48 39.67549 65.71089 37888 ft 466 kts 332°
2026-04-30 13:49 39.73599 65.68020 37889 ft 467 kts 332°
2026-04-30 13:49 39.79623 65.64960 37891 ft 468 kts 332°
2026-04-30 13:50 39.85690 65.61871 37893 ft 468 kts 332°
2026-04-30 13:50 39.94810 65.57216 37896 ft 468 kts 332°
2026-04-30 13:51 40.00886 65.54107 37907 ft 469 kts 332°
2026-04-30 13:51 40.06961 65.50991 37900 ft 469 kts 332°
2026-04-30 13:52 40.13034 65.47856 37893 ft 469 kts 332°
2026-04-30 13:52 40.19080 65.44725 37895 ft 470 kts 332°
2026-04-30 13:53 40.25171 65.41567 37895 ft 471 kts 332°
2026-04-30 13:53 40.31281 65.38393 37894 ft 472 kts 332°
2026-04-30 13:54 40.37345 65.35238 37884 ft 473 kts 332°
2026-04-30 13:54 40.43480 65.32039 37896 ft 473 kts 332°
2026-04-30 13:55 40.49606 65.28839 37891 ft 474 kts 332°
2026-04-30 13:55 40.55703 65.25648 37883 ft 474 kts 332°
2026-04-30 13:56 40.61830 65.22445 37875 ft 474 kts 332°
2026-04-30 13:56 40.67965 65.19238 37884 ft 474 kts 332°
2026-04-30 13:57 40.74117 65.16014 37868 ft 475 kts 332°
2026-04-30 13:57 40.80252 65.12790 37861 ft 475 kts 332°
2026-04-30 13:58 40.89429 65.07959 37861 ft 475 kts 332°
2026-04-30 13:59 40.95581 65.04720 37856 ft 475 kts 332°
2026-04-30 13:59 41.01732 65.01474 37852 ft 475 kts 332°
2026-04-30 14:00 41.07845 64.98241 37849 ft 476 kts 332°
2026-04-30 14:00 41.17101 64.93333 37861 ft 477 kts 332°
2026-04-30 14:01 41.23226 64.90077 37860 ft 477 kts 333°
2026-04-30 14:01 41.29395 64.86787 37851 ft 478 kts 333°
2026-04-30 14:02 41.35593 64.83473 37848 ft 478 kts 333°
2026-04-30 14:02 41.41767 64.80165 37857 ft 479 kts 333°
2026-04-30 14:03 41.47919 64.76862 37845 ft 479 kts 333°
2026-04-30 14:03 41.54115 64.73530 37834 ft 479 kts 333°
2026-04-30 14:04 41.60298 64.70197 37850 ft 480 kts 333°
2026-04-30 14:04 41.66485 64.66855 37840 ft 480 kts 333°
2026-04-30 14:05 41.72686 64.63498 37838 ft 480 kts 333°
2026-04-30 14:05 41.78834 64.60146 37835 ft 479 kts 332°
2026-04-30 14:06 41.88063 64.54960 37832 ft 479 kts 332°
2026-04-30 14:07 41.97260 64.49775 37835 ft 479 kts 332°
2026-04-30 14:08 42.06499 64.44566 37856 ft 479 kts 332°
2026-04-30 14:08 42.15731 64.39344 37852 ft 480 kts 332°
2026-04-30 14:09 42.21847 64.35874 37835 ft 480 kts 332°
2026-04-30 14:10 42.31090 64.30616 37836 ft 480 kts 332°
2026-04-30 14:10 42.37249 64.27104 37850 ft 480 kts 332°
2026-04-30 14:11 42.43418 64.23579 37864 ft 481 kts 332°
2026-04-30 14:11 42.49609 64.20074 37863 ft 482 kts 333°
2026-04-30 14:12 42.55767 64.16586 37854 ft 480 kts 329°
2026-04-30 14:12 42.61444 64.11966 37864 ft 473 kts 318°
2026-04-30 14:13 42.66432 64.06204 37867 ft 469 kts 313°
2026-04-30 14:13 42.71265 64.00321 37875 ft 469 kts 313°
2026-04-30 14:14 42.76139 63.94403 37875 ft 470 kts 313°
2026-04-30 14:14 42.81029 63.88495 37878 ft 470 kts 313°
2026-04-30 14:15 42.85925 63.82583 37883 ft 470 kts 313°
2026-04-30 14:15 42.90819 63.76664 37884 ft 470 kts 313°
2026-04-30 14:16 42.95696 63.70751 37885 ft 471 kts 313°
2026-04-30 14:16 43.00590 63.64802 37878 ft 471 kts 313°
2026-04-30 14:17 43.05484 63.58841 37894 ft 471 kts 313°
2026-04-30 14:17 43.10378 63.52864 37885 ft 471 kts 313°
2026-04-30 14:18 43.15268 63.46881 37890 ft 471 kts 313°
2026-04-30 14:18 43.22571 63.37919 37893 ft 472 kts 313°
2026-04-30 14:19 43.29883 63.28916 37888 ft 472 kts 313°
2026-04-30 14:20 43.34790 63.22857 37903 ft 472 kts 313°
2026-04-30 14:20 43.42126 63.13775 37895 ft 473 kts 313°
2026-04-30 14:21 43.46985 63.07742 37896 ft 473 kts 313°
2026-04-30 14:22 43.54317 62.98611 37896 ft 473 kts 313°
2026-04-30 14:22 43.60824 62.90482 37897 ft 473 kts 313°
2026-04-30 14:23 43.71384 62.77236 37898 ft 474 kts 313°
2026-04-30 14:24 43.77890 62.69043 37895 ft 475 kts 312°
2026-04-30 14:25 43.87662 62.56689 37900 ft 475 kts 312°
2026-04-30 14:26 43.94975 62.47406 37923 ft 475 kts 312°
2026-04-30 14:27 44.02255 62.38133 37898 ft 475 kts 312°
2026-04-30 14:27 44.07143 62.31889 37892 ft 475 kts 312°
2026-04-30 14:28 44.14424 62.22558 37903 ft 477 kts 312°
2026-04-30 14:28 44.19303 62.16289 37906 ft 477 kts 312°
2026-04-30 14:29 44.29085 62.03674 37911 ft 479 kts 312°
2026-04-30 14:31 44.41275 61.87871 37901 ft 479 kts 311°
2026-04-30 14:31 44.48610 61.78316 37905 ft 480 kts 311°
2026-04-30 14:32 44.55906 61.68777 37902 ft 480 kts 311°
2026-04-30 14:33 44.60792 61.62370 37890 ft 480 kts 311°
2026-04-30 14:33 44.68114 61.52740 37910 ft 480 kts 311°
2026-04-30 14:34 44.72975 61.46326 37896 ft 481 kts 311°
2026-04-30 14:34 44.77847 61.39883 37909 ft 481 kts 311°
2026-04-30 14:35 44.85164 61.30176 37908 ft 482 kts 311°
2026-04-30 14:36 44.90043 61.23685 37923 ft 482 kts 311°
2026-04-30 14:36 44.94928 61.17169 37908 ft 483 kts 311°
2026-04-30 14:37 44.99785 61.10674 37900 ft 483 kts 311°
2026-04-30 14:37 45.04672 61.04124 37901 ft 483 kts 311°
2026-04-30 14:38 45.09551 60.97568 37903 ft 484 kts 311°
2026-04-30 14:38 45.14439 60.90984 37897 ft 484 kts 311°
2026-04-30 14:39 45.19311 60.84405 37902 ft 484 kts 311°
2026-04-30 14:39 45.24184 60.77808 37898 ft 484 kts 311°
2026-04-30 14:40 45.31448 60.67943 37890 ft 484 kts 311°
2026-04-30 14:40 45.36312 60.61317 37888 ft 484 kts 311°
2026-04-30 14:41 45.41180 60.54670 37888 ft 485 kts 311°
2026-04-30 14:41 45.46041 60.48014 37888 ft 485 kts 311°
2026-04-30 14:42 45.50903 60.41341 37885 ft 485 kts 311°
2026-04-30 14:42 45.55765 60.34650 37886 ft 485 kts 310°
2026-04-30 14:43 45.60619 60.27954 37883 ft 485 kts 310°
2026-04-30 14:43 45.65442 60.21283 37881 ft 485 kts 310°
2026-04-30 14:44 45.70291 60.14561 37898 ft 485 kts 310°
2026-04-30 14:44 45.75139 60.07821 37885 ft 486 kts 310°
2026-04-30 14:45 45.79993 60.01056 37876 ft 486 kts 310°
2026-04-30 14:45 45.84830 59.94298 37872 ft 486 kts 310°
2026-04-30 14:46 45.89636 59.87565 37863 ft 486 kts 310°
2026-04-30 14:46 45.94497 59.80738 37862 ft 486 kts 310°
2026-04-30 14:47 45.99292 59.73988 37872 ft 486 kts 310°
2026-04-30 14:47 46.04129 59.67159 37876 ft 487 kts 310°
2026-04-30 14:48 46.08965 59.60314 37872 ft 487 kts 310°
2026-04-30 14:48 46.13790 59.53468 37873 ft 487 kts 310°
2026-04-30 14:49 46.18583 59.46649 37897 ft 487 kts 310°
2026-04-30 14:49 46.23438 59.39724 37873 ft 487 kts 310°
2026-04-30 14:50 46.30632 59.29428 37872 ft 487 kts 310°
2026-04-30 14:51 46.37850 59.19058 37881 ft 488 kts 310°
2026-04-30 14:52 46.45074 59.08638 37881 ft 488 kts 310°
2026-04-30 14:52 46.52256 58.98237 37889 ft 488 kts 310°
2026-04-30 14:53 46.59462 58.87761 37878 ft 488 kts 310°
2026-04-30 14:54 46.69053 58.73752 37892 ft 488 kts 310°
2026-04-30 14:55 46.76242 58.63202 37883 ft 488 kts 310°
2026-04-30 14:56 46.85782 58.49136 37892 ft 489 kts 310°
2026-04-30 14:57 46.92957 58.38508 37880 ft 488 kts 309°
2026-04-30 14:58 47.02439 58.24397 37882 ft 487 kts 309°
2026-04-30 14:58 47.09564 58.13742 37885 ft 487 kts 309°
2026-04-30 15:00 47.21404 57.95941 37895 ft 487 kts 309°
2026-04-30 15:01 47.30831 57.81680 37899 ft 487 kts 309°
2026-04-30 15:01 47.37918 57.70907 37905 ft 488 kts 309°
2026-04-30 15:02 47.42650 57.63690 37906 ft 488 kts 309°
2026-04-30 15:03 47.54433 57.45633 37921 ft 490 kts 309°
2026-04-30 15:04 47.66236 57.27420 37949 ft 489 kts 309°
2026-04-30 15:06 47.78010 57.09124 37944 ft 489 kts 308°
2026-04-30 15:07 47.87360 56.94501 37947 ft 488 kts 308°
2026-04-30 15:08 47.96695 56.79821 37955 ft 488 kts 308°
2026-04-30 15:08 48.03699 56.68750 38066 ft 493 kts 308°
2026-04-30 15:09 48.08404 56.61287 38579 ft 492 kts 308°
2026-04-30 15:09 48.12300 56.55096 39009 ft 490 kts 308°
2026-04-30 15:10 48.17725 56.46448 39514 ft 489 kts 308°
2026-04-30 15:11 48.26263 56.32770 39952 ft 492 kts 308°
2026-04-30 15:11 48.30928 56.25269 39966 ft 489 kts 308°
2026-04-30 15:13 48.42434 56.06681 39983 ft 483 kts 307°
2026-04-30 15:14 48.58429 55.80603 39999 ft 488 kts 307°
2026-04-30 15:17 48.79214 55.46335 40014 ft 492 kts 307°
2026-04-30 15:19 48.97547 55.15730 40028 ft 488 kts 307°